Location: Baggett Branch
(32.6074°N, 97.0167°W)
Time: 03:18:13
(UTC+00:00)

ACS3 Solar Sail - Visible Passes

Search period start: 15 April 2026 00:00
Search period end: 25 April 2026 00:00
Orbit: 871 x 977 km, 97.2° (Epoch: 14 April)

Date Brightness Start Highest point End Pass type
(mag) Time Alt. Az. Time Alt. Az. Time Alt. Az.
15 Apr 4.2 07:03:31 10° NNE 07:04:34 15° NNE 07:04:34 15° NNE visible
15 Apr 3.8 08:46:38 10° NNW 08:48:08 16° NNW 08:48:08 16° NNW visible
16 Apr 4.1 07:13:07 10° NNE 07:14:32 18° NNE 07:14:32 18° NNE visible
16 Apr 3.9 08:56:49 10° NNW 08:58:07 14° NW 08:58:07 14° NW visible
17 Apr 3.9 07:22:45 10° NNE 07:24:31 20° NNE 07:24:31 20° NNE visible
17 Apr 4.0 09:07:10 10° NNW 09:08:05 12° NW 09:08:05 12° NW visible
18 Apr 3.8 07:32:27 10° NNE 07:34:28 22° NNE 07:34:28 22° NNE visible
18 Apr 4.0 09:17:50 10° NW 09:18:02 10° NW 09:18:02 10° NW visible
19 Apr 3.7 07:42:11 10° N 07:44:26 24° N 07:44:26 24° N visible
20 Apr 3.6 07:51:58 10° N 07:54:22 25° N 07:54:22 25° N visible
21 Apr 3.5 08:01:47 10° N 08:04:19 25° N 08:04:19 25° N visible
22 Apr 4.3 06:30:04 10° NE 06:30:41 12° NE 06:30:41 12° NE visible
22 Apr 3.5 08:11:39 10° N 08:14:15 25° NNW 08:14:15 25° NNW visible
23 Apr 4.2 06:39:23 10° NE 06:40:36 15° NE 06:40:36 15° NE visible
23 Apr 3.5 08:21:34 10° N 08:24:10 23° NNW 08:24:10 23° NNW visible
24 Apr 4.0 06:48:50 10° NNE 06:50:31 18° NE 06:50:31 18° NE visible
24 Apr 3.6 08:31:31 10° NNW 08:34:05 21° NW 08:34:05 21° NW visible
